K4AVM-13 Weather Reports


time (UTC)temp
F
wind
direction
speed
knots
gust
knots
rain 1hr
in
rain 24hr
in
rain mn
in
humidity
%
barometer
mb
20260507160600 56 165 1.7 6.1 0.00 0.06 0.06 78 1013.6
20260507160057 55 119 1.7 1.7 0.00 0.06 0.06 79 1013.7
20260507155552 55 23 2.6 3.5 0.00 0.06 0.06 80 1013.5
20260507155050 55 357 1.7 3.5 0.00 0.06 0.06 80 1013.6
20260507154546 55 107 0.9 3.5 0.00 0.06 0.06 80 1013.6
20260507154043 55 281 3.5 5.2 0.00 0.06 0.06 79 1013.6
20260507153540 55 163 0.9 7.0 0.00 0.06 0.06 79 1013.3
20260507153036 55 332 1.7 3.5 0.00 0.06 0.06 79 1013.5
20260507152532 56 127 1.7 2.6 0.00 0.06 0.06 78 1013.6
20260507152029 56 354 0.9 9.6 0.00 0.06 0.06 77 1013.5
20260507151525 56 58 0.0 7.8 0.00 0.06 0.06 76 1013.8
20260507151022 56 111 0.9 6.1 0.00 0.06 0.06 77 1013.8
20260507150519 56 49 1.7 2.6 0.00 0.06 0.06 79 1013.9
20260507150016 56 145 0.9 2.6 0.00 0.06 0.06 79 1013.4
20260507145510 56 356 1.7 2.6 0.00 0.06 0.06 80 1013.2
20260507145009 56 69 1.7 5.2 0.00 0.06 0.06 79 1013.4
20260507144505 57 21 2.6 3.5 0.00 0.06 0.06 79 1013.2
20260507144003 57 116 1.7 2.6 0.00 0.06 0.06 78 1013.4
20260507143500 57 327 0.9 2.6 0.00 0.06 0.06 79 1013.5
20260507142956 57 133 0.0 1.7 0.00 0.06 0.06 80 1013.3
20260507142452 57 20 0.9 2.6 0.00 0.06 0.06 78 1013.5
20260507141949 57 138 0.0 0.0 0.00 0.06 0.06 79 1013.6
20260507141445 57 149 0.9 1.7 0.00 0.06 0.06 79 1013.6
20260507140942 57 81 1.7 7.0 0.00 0.06 0.06 79 1013.6
20260507140439 57 170 1.7 3.5 0.00 0.06 0.06 79 1013.8
20260507135936 57 148 0.9 3.5 0.00 0.06 0.06 79 1013.8
20260507135433 57 15 0.9 1.7 0.00 0.06 0.06 79 1013.6
20260507134930 58 19 1.7 2.6 0.00 0.06 0.06 78 1013.8
20260507134427 57 172 0.9 3.5 0.00 0.06 0.06 79 1013.4
20260507133923 57 31 3.5 5.2 0.00 0.06 0.06 78 1013.4
20260507133418 57 29 1.7 2.6 0.00 0.06 0.06 78 1013.4
20260507132912 57 145 0.9 1.7 0.00 0.06 0.06 79 1013.3
20260507132407 57 325 5.2 7.0 0.00 0.06 0.06 80 1013.2
20260507131906 57 223 1.7 5.2 0.00 0.06 0.06 80 1013.4
20260507131401 57 326 4.3 7.0 0.00 0.06 0.06 80 1013.6
20260507130858 57 8 2.6 5.2 0.00 0.06 0.06 81 1013.2
20260507130355 57 163 0.9 6.1 0.00 0.06 0.06 82 1013.2
20260507125854 57 51 1.7 2.6 0.00 0.06 0.06 83 1013.4
20260507125351 57 332 5.2 7.8 0.00 0.06 0.06 82 1013.2
20260507124849 57 134 0.0 6.1 0.00 0.06 0.06 84 1013.5
20260507124344 57 163 3.5 6.1 0.00 0.06 0.06 85 1013.2
20260507123843 57 141 0.9 2.6 0.00 0.06 0.06 90 1013.2
20260507123340 57 10 2.6 6.1 0.00 0.06 0.06 91 1013.4
20260507122836 57 68 1.7 2.6 0.00 0.06 0.06 92 1013.1
20260507122332 57 82 0.9 1.7 0.00 0.06 0.06 92 1013.0
20260507121828 57 349 0.9 1.7 0.00 0.06 0.06 92 1012.8
20260507121324 57 43 3.5 7.0 0.00 0.06 0.06 92 1013.0
20260507120821 57 17 0.9 2.6 0.00 0.06 0.06 92 1012.8
20260507120317 57 92 0.9 1.7 0.00 0.06 0.06 92 1013.3
20260507115813 57 144 0.9 3.5 0.00 0.06 0.06 92 1013.2
20260507115309 57 4 2.6 2.6 0.00 0.06 0.06 92 1012.9
20260507114805 57 274 1.7 1.7 0.00 0.06 0.06 91 1013.3
20260507114302 56 229 1.7 2.6 0.00 0.06 0.06 91 1013.2
20260507113800 56 168 0.9 2.6 0.00 0.06 0.06 91 1013.1
20260507113256 56 301 0.9 2.6 0.00 0.06 0.06 92 1013.0
20260507112754 56 122 2.6 3.5 0.00 0.06 0.06 93 1012.8
20260507112251 56 113 2.6 2.6 0.00 0.06 0.06 93 1012.8
20260507111749 56 142 0.0 0.9 0.00 0.06 0.06 94 1012.6
20260507111245 56 19 1.7 2.6 0.00 0.06 0.06 95 1012.7
20260507110741 56 151 0.0 0.9 0.00 0.06 0.06 95 1012.9
20260507110238 56 178 0.0 0.0 0.00 0.06 0.06 95 1012.7
20260507105735 56 225 0.0 0.9 0.00 0.06 0.06 96 1012.5
20260507105231 56 22 0.0 0.9 0.00 0.06 0.06 96 1012.5
20260507104728 56 173 0.0 1.7 0.00 0.06 0.06 96 1012.4
20260507104225 56 94 0.9 1.7 0.00 0.06 0.06 96 1012.6
20260507103721 56 322 0.9 1.7 0.00 0.06 0.06 96 1012.0
20260507103217 56 352 0.9 2.6 0.00 0.06 0.06 96 1012.3
20260507102713 56 74 0.9 0.9 0.00 0.06 0.06 96 1012.3
20260507102210 56 153 0.0 2.6 0.00 0.06 0.06 96 1012.0
20260507101706 56 107 0.9 2.6 0.00 0.06 0.06 96 1011.9
20260507101201 56 162 1.7 1.7 0.00 0.06 0.06 97 1012.1
20260507100659 56 149 0.0 2.6 0.00 0.06 0.06 97 1012.3
20260507100158 56 359 1.7 2.6 0.00 0.06 0.06 96 1012.3
20260507095655 56 172 0.0 0.9 0.07 0.06 0.06 96 1012.4
20260507095151 57 68 2.6 3.5 0.26 0.06 0.06 95 1012.2
20260507094648 57 289 2.6 3.5 0.19 0.05 0.05 94 1012.2
20260507094145 57 203 0.9 1.7 0.00 0.02 0.02 93 1012.4
20260507093642 57 283 1.7 5.2 0.00 0.02 0.02 93 1012.5
20260507093141 57 159 1.7 2.6 0.00 0.02 0.02 93 1012.4
20260507092637 57 127 0.0 0.9 0.00 0.02 0.02 93 1012.1
20260507092134 58 111 0.9 5.2 0.00 0.02 0.02 92 1012.3
20260507091630 58 149 0.9 2.6 0.05 0.02 0.02 94 1012.3
20260507091126 58 35 1.7 1.7 0.12 0.02 0.02 93 1012.0
20260507090622 59 163 0.9 1.7 0.07 0.01 0.01 93 1012.5
20260507090120 59 77 4.3 6.1 0.00 0.00 0.00 92 1012.2
20260507085616 59 8 1.7 5.2 0.00 0.00 0.00 92 1012.4
20260507085113 59 182 0.9 3.5 0.00 0.00 0.00 92 1012.0
20260507084610 59 150 0.0 7.0 0.00 0.00 0.00 92 1012.0
20260507084107 60 1 2.6 3.5 0.00 0.00 0.00 92 1011.8
20260507083603 60 6 3.5 7.0 0.00 0.00 0.00 92 1011.8
20260507083101 60 41 0.9 2.6 0.00 0.00 0.00 91 1011.4
20260507082556 61 294 1.7 7.0 0.00 0.00 0.00 91 1011.7
20260507082053 62 102 0.9 3.5 0.00 0.00 0.00 92 1011.8
20260507081549 63 317 2.6 5.2 0.00 0.00 0.00 93 1011.6
20260507081046 64 102 0.9 7.8 0.00 0.00 0.00 93 1011.4
20260507080542 66 200 0.9 6.1 0.00 0.00 0.00 94 1011.0
20260507080038 66 162 0.0 3.5 0.00 0.00 0.00 93 1011.0
20260507075534 67 33 1.7 5.2 0.00 0.00 0.00 92 1010.9
20260507075030 67 349 1.7 5.2 0.00 0.00 0.00 92 1010.5
20260507074527 67 344 0.0 1.7 0.00 0.00 0.00 92 1010.9
20260507074026 67 151 0.0 1.7 0.00 0.00 0.00 91 1010.9
20260507073521 67 144 0.0 0.9 0.00 0.00 0.00 91 1010.9
20260507073018 67 149 0.0 0.9 0.00 0.00 0.00 91 1010.8
20260507072516 67 145 0.0 0.0 0.00 0.00 0.00 90 1011.0
20260507072013 68 141 0.0 0.0 0.00 0.00 0.00 90 1010.9
20260507071510 67 102 0.0 0.0 0.00 0.00 0.00 90 1011.1
20260507071006 68 156 0.0 0.9 0.00 0.00 0.00 90 1011.1
20260507070504 68 109 0.9 0.9 0.00 0.00 0.00 90 1010.8
20260507070001 68 153 0.0 0.9 0.00 0.00 0.00 89 1010.4
20260507065457 68 126 0.0 0.0 0.00 0.00 0.00 89 1010.3
20260507064954 68 141 0.9 1.7 0.00 0.00 0.00 88 1010.2
20260507064452 69 151 0.0 0.9 0.00 0.00 0.00 88 1010.3
20260507063950 69 141 0.0 0.9 0.00 0.00 0.00 87 1010.2
20260507063447 69 154 0.0 1.7 0.00 0.00 0.00 87 1009.9
20260507062943 69 151 0.0 3.5 0.00 0.00 0.00 87 1009.7
20260507062441 69 200 1.7 1.7 0.00 0.00 0.00 87 1009.8
20260507061938 69 168 0.0 0.9 0.00 0.00 0.00 87 1009.9
20260507061436 69 169 0.0 1.7 0.00 0.00 0.00 86 1009.8
20260507060934 69 115 1.7 1.7 0.00 0.00 0.00 86 1009.9
20260507060431 69 161 0.9 1.7 0.00 0.00 0.00 85 1009.9
20260507055927 69 177 0.9 2.6 0.00 0.00 0.00 85 1009.8
20260507055422 69 141 1.7 3.5 0.00 0.00 0.00 85 1009.9
20260507054914 69 155 0.9 1.7 0.00 0.00 0.00 85 1010.1
20260507054410 69 154 0.0 1.7 0.00 0.00 0.00 85 1009.9
20260507053908 69 159 0.0 1.7 0.00 0.00 0.00 85 1009.8
20260507053405 70 144 0.9 1.7 0.00 0.00 0.00 85 1010.1
20260507052904 70 145 0.0 3.5 0.00 0.00 0.00 85 1010.2
20260507052401 70 176 0.0 0.9 0.00 0.00 0.00 85 1010.4
20260507051858 69 169 0.9 2.6 0.00 0.00 0.00 85 1010.4
20260507051355 69 197 0.9 3.5 0.00 0.00 0.00 85 1010.9
20260507050852 69 117 0.9 1.7 0.00 0.00 0.00 85 1011.0
20260507050348 69 159 0.9 0.9 0.00 0.00 0.00 85 1011.3
20260507045845 69 132 0.9 1.7 0.00 0.00 0.00 86 1011.3
20260507045342 69 141 0.9 0.9 0.00 0.00 0.00 86 1011.3
20260507044839 69 113 0.9 1.7 0.00 0.00 0.00 86 1011.3
20260507044335 69 136 0.9 1.7 0.00 0.00 0.00 86 1011.1
20260507043831 69 153 0.9 1.7 0.00 0.00 0.00 85 1011.2
20260507043328 69 171 1.7 3.5 0.00 0.00 0.00 86 1011.5
20260507042825 69 211 0.0 2.6 0.00 0.00 0.00 86 1011.5
20260507042320 69 161 0.0 1.7 0.00 0.00 0.00 86 1011.5
20260507041817 69 160 0.0 1.7 0.00 0.00 0.00 86 1011.4
20260507041314 69 185 0.0 0.9 0.00 0.00 0.00 87 1011.1
20260507040811 69 175 0.9 0.9 0.00 0.00 0.00 87 1011.1
20260507040307 69 149 0.0 0.9 0.00 0.00 0.00 87 1011.3
20260507035803 69 144 0.0 0.9 0.00 0.10 0.10 87 1011.3
20260507035259 69 150 0.0 3.5 0.00 0.10 0.10 87 1011.3
20260507034757 69 151 0.0 5.2 0.00 0.10 0.10 87 1011.4
20260507034253 69 181 0.0 0.9 0.00 0.10 0.10 88 1011.6
20260507033752 68 156 0.9 1.7 0.00 0.10 0.10 88 1011.3
20260507033249 68 154 0.9 2.6 0.00 0.10 0.10 87 1011.2
20260507032746 68 178 1.7 3.5 0.00 0.10 0.10 88 1011.0
20260507032242 68 161 0.0 0.0 0.00 0.10 0.10 88 1010.9
20260507031738 68 141 0.9 2.6 0.00 0.10 0.10 88 1011.0
20260507031235 68 174 0.0 1.7 0.00 0.10 0.10 88 1011.0
20260507030732 68 161 0.9 0.9 0.00 0.10 0.10 88 1011.1
20260507030229 68 154 0.0 3.5 0.00 0.10 0.10 88 1010.9
20260507025727 68 151 0.0 0.9 0.00 0.10 0.10 88 1010.9
20260507025223 68 141 0.0 5.2 0.00 0.10 0.10 88 1010.9
20260507024722 68 150 0.0 2.6 0.00 0.10 0.10 88 1010.6
20260507024219 68 174 0.9 0.9 0.00 0.10 0.10 88 1010.9
20260507023714 68 161 0.9 1.7 0.00 0.10 0.10 87 1011.0
20260507023211 68 172 0.0 2.6 0.00 0.10 0.10 87 1011.0
20260507022709 69 169 0.0 1.7 0.00 0.10 0.10 87 1011.4
20260507022204 69 137 0.0 5.2 0.00 0.10 0.10 87 1011.2
20260507021701 69 126 0.9 1.7 0.00 0.10 0.10 87 1011.3
20260507021156 68 125 0.0 1.7 0.00 0.10 0.10 87 1011.4
20260507020655 68 184 0.9 1.7 0.00 0.10 0.10 87 1011.4
20260507020150 68 170 0.9 1.7 0.00 0.10 0.10 87 1011.3
20260507015649 69 192 1.7 1.7 0.00 0.10 0.10 87 1011.5
20260507015146 68 141 0.9 1.7 0.00 0.10 0.10 87 1011.4
20260507014642 68 170 0.9 1.7 0.00 0.10 0.10 87 1011.4
20260507014138 68 159 0.9 1.7 0.00 0.10 0.10 87 1011.3
20260507013636 68 141 0.0 1.7 0.00 0.10 0.10 87 1011.5
20260507013132 68 144 0.0 0.0 0.00 0.10 0.10 87 1011.2
20260507012630 68 149 0.0 0.9 0.00 0.10 0.10 86 1011.4
20260507012125 68 97 0.0 0.9 0.00 0.10 0.10 86 1011.3
20260507011624 68 149 0.0 0.9 0.00 0.10 0.10 86 1011.2
20260507011119 68 164 0.9 0.9 0.00 0.10 0.10 87 1011.0
20260507010614 68 156 0.0 0.9 0.00 0.10 0.10 86 1011.2
20260507010110 68 149 0.0 0.9 0.00 0.10 0.10 86 1011.0
20260507005608 68 150 0.0 0.9 0.00 0.10 0.10 86 1011.2
20260507005104 68 158 0.9 0.9 0.00 0.10 0.10 86 1011.4
20260507004601 68 159 0.0 1.7 0.00 0.10 0.10 86 1011.2
20260507004059 68 153 0.0 1.7 0.00 0.10 0.10 85 1011.2
20260507003554 69 150 0.0 0.0 0.00 0.10 0.10 85 1011.4
20260507003049 69 151 0.0 0.0 0.00 0.10 0.10 84 1011.3
20260507002546 69 151 0.0 0.9 0.00 0.10 0.10 84 1011.4
20260507002042 69 155 0.9 0.9 0.00 0.10 0.10 83 1011.5
20260507001539 69 78 0.9 0.9 0.00 0.10 0.10 83 1011.5
20260507001037 70 166 0.0 0.9 0.00 0.10 0.10 82 1011.5
20260507000533 70 145 0.0 0.9 0.00 0.10 0.10 82 1011.3
20260507000028 70 171 0.9 0.9 0.00 0.10 0.10 82 1011.2
20260506235526 70 150 0.0 0.9 0.00 0.10 0.10 81 1011.1
20260506235021 70 167 0.0 1.7 0.00 0.10 0.10 81 1011.1
20260506234519 70 168 0.0 1.7 0.00 0.10 0.10 80 1011.0
20260506234016 71 149 0.9 2.6 0.00 0.10 0.10 80 1011.0
20260506233512 71 207 0.9 1.7 0.00 0.10 0.10 79 1010.9
20260506233010 71 163 0.9 5.2 0.00 0.10 0.10 79 1010.9
20260506232505 71 150 0.9 1.7 0.00 0.10 0.10 79 1011.0
20260506232001 71 154 1.7 2.6 0.00 0.10 0.10 79 1011.0
20260506231459 71 158 0.9 1.7 0.00 0.10 0.10 78 1011.1
20260506230956 72 167 0.0 0.9 0.00 0.10 0.10 77 1010.6
20260506230452 72 154 0.9 3.5 0.00 0.10 0.10 77 1011.2
20260506225949 72 156 0.0 0.9 0.00 0.10 0.10 77 1011.2
20260506225447 71 142 0.9 1.7 0.00 0.10 0.10 78 1011.0
20260506224943 71 155 0.0 1.7 0.00 0.10 0.10 78 1011.1
20260506224441 71 211 0.9 1.7 0.00 0.10 0.10 77 1011.1
20260506223937 71 154 1.7 3.5 0.00 0.10 0.10 77 1011.0
20260506223432 71 155 0.9 2.6 0.00 0.10 0.10 77 1011.1
20260506222930 71 157 0.9 2.6 0.00 0.10 0.10 77 1011.0
20260506222426 71 153 0.0 1.7 0.00 0.10 0.10 76 1011.1
20260506221923 71 148 0.9 1.7 0.00 0.10 0.10 76 1011.1
20260506221420 71 182 1.7 2.6 0.00 0.10 0.10 76 1011.0
20260506220918 72 174 0.9 1.7 0.00 0.10 0.10 77 1010.8
20260506220414 72 192 0.9 0.9 0.00 0.10 0.10 76 1010.9
20260506215910 72 172 0.9 2.6 0.00 0.10 0.10 76 1011.1
20260506215407 72 279 3.5 5.2 0.00 0.10 0.10 75 1011.0
20260506214902 72 201 1.7 7.0 0.00 0.10 0.10 75 1011.0
20260506214359 72 148 0.0 0.9 0.00 0.10 0.10 76 1011.1
20260506213857 73 166 0.0 0.0 0.00 0.10 0.10 76 1011.1
20260506213355 72 190 0.9 1.7 0.00 0.10 0.10 76 1011.2
20260506212852 72 140 1.7 2.6 0.00 0.10 0.10 76 1011.5
20260506212347 72 199 0.9 3.5 0.00 0.10 0.10 77 1011.3
20260506211842 72 168 0.0 0.9 0.00 0.10 0.10 78 1011.2
20260506211339 72 170 0.0 1.7 0.00 0.10 0.10 78 1011.3
20260506210836 72 182 0.9 1.7 0.00 0.10 0.10 78 1011.3
20260506210333 72 155 0.9 1.7 0.00 0.10 0.10 78 1011.2
20260506205830 73 206 1.7 7.8 0.00 0.10 0.10 77 1011.2
20260506205326 73 186 0.9 1.7 0.00 0.10 0.10 78 1011.1
20260506204822 73 179 0.9 1.7 0.00 0.10 0.10 78 1011.3
20260506204320 71 169 0.0 0.9 0.00 0.10 0.10 81 1011.1
20260506203818 71 161 0.0 1.7 0.00 0.10 0.10 81 1011.1
20260506203315 71 191 0.9 1.7 0.00 0.10 0.10 82 1011.2
20260506202811 71 180 0.9 1.7 0.00 0.10 0.10 82 1011.1
20260506202308 71 171 0.0 0.9 0.00 0.10 0.10 82 1011.2
20260506201805 70 183 0.9 1.7 0.00 0.10 0.10 82 1011.3
20260506201302 70 173 0.0 0.9 0.00 0.10 0.10 81 1011.2
20260506200759 70 173 0.0 2.6 0.00 0.10 0.10 83 1011.2
20260506200255 70 164 0.0 0.9 0.00 0.10 0.10 83 1010.9
20260506195752 69 132 0.0 3.5 0.00 0.10 0.10 83 1010.4
20260506195248 69 153 0.0 1.7 0.00 0.10 0.10 83 1010.4
20260506194746 69 130 0.9 1.7 0.00 0.10 0.10 84 1010.5
20260506194242 69 159 0.0 1.7 0.00 0.10 0.10 84 1010.5
20260506193740 69 165 0.0 0.9 0.00 0.10 0.10 85 1010.8
20260506193237 68 178 0.0 0.9 0.00 0.10 0.10 86 1010.9
20260506192733 68 157 0.9 2.6 0.00 0.10 0.10 86 1011.2
20260506192230 68 170 2.6 3.5 0.00 0.10 0.10 87 1011.1
20260506191727 68 150 0.9 2.6 0.00 0.10 0.10 87 1011.3
20260506191223 67 149 1.7 1.7 0.00 0.10 0.10 87 1011.5
20260506190720 67 166 1.7 3.5 0.00 0.10 0.10 88 1011.7
20260506190217 67 164 0.9 5.2 0.00 0.10 0.10 90 1011.6
20260506185714 66 161 0.9 0.9 0.00 0.10 0.10 89 1011.8
20260506185210 66 189 0.9 1.7 0.00 0.10 0.10 90 1011.8
20260506184708 66 169 0.9 1.7 0.00 0.10 0.10 90 1012.1
20260506184205 66 328 0.0 0.9 0.00 0.10 0.10 89 1011.8
20260506183701 66 169 1.7 2.6 0.00 0.10 0.10 88 1011.7
20260506183157 66 178 1.7 2.6 0.00 0.10 0.10 87 1012.0
20260506182655 67 225 0.9 3.5 0.00 0.10 0.10 87 1012.2
20260506182151 67 251 2.6 3.5 0.00 0.10 0.10 87 1012.3
20260506181644 67 164 1.7 1.7 0.00 0.10 0.10 87 1012.5
20260506181141 67 216 2.6 3.5 0.00 0.10 0.10 86 1012.4
20260506180638 67 215 2.6 3.5 0.00 0.10 0.10 86 1012.5
20260506180134 67 150 0.9 7.8 0.00 0.10 0.10 86 1012.6
20260506175631 67 162 0.0 2.6 0.00 0.10 0.10 86 1012.6
20260506175127 67 153 0.9 3.5 0.00 0.10 0.10 86 1012.5
20260506174626 67 135 0.0 3.5 0.00 0.10 0.10 86 1012.5
20260506174122 67 149 0.0 0.9 0.00 0.10 0.10 85 1012.4
20260506173620 67 105 1.7 6.1 0.00 0.10 0.10 85 1012.5
20260506173116 67 154 0.0 5.2 0.00 0.10 0.10 86 1012.6
20260506172614 66 187 1.7 6.1 0.00 0.10 0.10 86 1012.7
20260506172110 66 236 3.5 5.2 0.00 0.10 0.10 86 1012.4
20260506171608 66 158 1.7 2.6 0.00 0.10 0.10 86 1012.4
20260506171105 66 167 1.7 5.2 0.00 0.10 0.10 86 1012.9
20260506170601 66 160 0.9 1.7 0.00 0.10 0.10 88 1012.9
20260506170054 66 153 0.0 1.7 0.00 0.10 0.10 88 1013.1
20260506165552 66 176 0.9 2.6 0.00 0.10 0.10 88 1013.0
20260506165048 65 165 0.9 7.0 0.00 0.10 0.10 88 1012.9
20260506164545 66 221 0.9 3.5 0.00 0.10 0.10 87 1012.9
20260506164042 66 199 0.9 1.7 0.00 0.10 0.10 88 1012.9
20260506163538 66 159 0.0 3.5 0.00 0.10 0.10 89 1013.0
20260506163033 65 129 1.7 5.2 0.00 0.10 0.10 88 1012.9
20260506162530 65 163 0.9 0.9 0.00 0.10 0.10 90 1012.8
20260506162022 64 151 0.9 1.7 0.00 0.10 0.10 91 1012.9
20260506161519 63 144 0.9 2.6 0.00 0.10 0.10 92 1013.0
20260506161016 62 172 0.9 5.2 0.00 0.10 0.10 93 1012.9